RH
15 14 13 12 11 11 13 14 14 22 24 28 41 64 73 100 90 99 100 100 100 99 75 100 100 100 100 100 100 100 100 100 100 100 100 100 100 90 68 66 66 58 42 90
9 8 8 8 8 7 8 8 11 15 16 20 28 40 64 91 98 99 89 98 100 100 100 89 77 90 99 100 100 100 100 100 100 100 100 100 96 94 98 95 68 59 47 94
8 8 8 8 7 7 6 6 8 11 13 17 21 24 31 56 81 75 88 82 90 100 100 100 100 89 70 66 88 100 100 100 100 100 100 99 96 100 98 96 69 60 54 91
8 7 8 8 8 7 5 6 8 10 12 15 17 20 24 26 37 78 87 90 95 92 92 87 86 95 99 98 92 70 65 75 86 96 100 96 82 89 95 87 91 69 64 66
7 8 9 9 8 7 5 6 8 9 11 14 14 17 20 20 22 26 36 57 87 91 89 88 88 89 86 83 80 80 72 76 77 74 77 99 96 99 100 96 86 76 78 72
10 10 9 9 8 6 5 6 8 8 10 12 15 17 14 18 20 23 25 28 27 28 42 35 38 45 58 62 63 63 63 53 58 59 72 76 77 77 70 89 98 100 83 89
10 10 10 10 9 7 7 7 8 9 10 12 13 13 14 15 16 17 18 20 19 23 25 26 28 28 29 32 37 36 36 47 33 31 54 49 65 67 66 66 100 92 96 100
9 10 9 8 8 8 8 8 10 12 14 13 15 12 11 11 12 14 16 18 20 21 20 19 21 22 22 23 22 23 22 23 24 22 21 25 30 38 55 56 61 92 75 82
11 12 12 13 12 10 8 7 7 10 18 23 12 12 12 16 16 14 13 16 14 12 14 15 14 13 14 14 15 15 16 17 18 19 16 16 26 36 47 57 51 84 95 88
10 10 11 11 11 10 8 7 9 10 21 25 23 25 22 17 14 14 19 20 14 13 12 11 11 12 12 12 12 11 12 10 12 13 12 12 25 34 36 38 45 84 84 84
11 13 13 15 16 16 14 15 16 18 20 22 31 34 34 42 32 39 51 31 16 13 14 15 22 18 16 16 18 16 14 13 12 10 10 14 22 23 29 25 29 46 46 70
15 15 16 17 18 16 15 14 17 17 14 24 24 32 46 49 50 57 40 32 31 22 18 23 24 24 18 21 23 26 23 19 12 10 11 14 16 17 20 22 24 32 42 55
9 10 11 11 11 12 10 12 13 12 11 18 16 24 26 25 34 40 35 40 35 28 21 20 17 22 26 21 26 30 22 18 13 11 19 16 15 15 20 20 23 29 31 40
4 4 4 5 6 6 6 6 12 7 7 7 15 15 10 18 23 23 21 28 25 22 18 13 14 15 19 18 21 29 23 14 13 13 17 16 19 22 20 21 36 33 28 29
4 4 5 4 5 5 5 5 6 6 5 6 6 6 8 9 10 13 14 14 14 12 10 8 8 9 9 13 17 24 19 17 16 20 19 32 47 40 34 32 46 64 41 39
4 4 4 4 5 5 6 7 8 8 8 9 8 8 6 7 7 8 9 9 6 5 5 5 6 9 11 15 18 18 18 21 22 23 22 38 39 41 47 59 56 34 37 33
2 2 2 3 3 4 4 5 4 5 6 6 6 6 5 5 6 6 6 5 5 5 5 6 7 8 10 12 12 12 18 22 26 28 33 40 42 40 41 42 38 45 39 39
2 2 2 2 2 2 3 3 4 4 4 5 6 9 8 7 6 6 6 6 5 5 6 6 7 8 9 10 11 14 22 27 28 32 31 30 30 41 51 50 45 46 65 100
3 3 3 3 3 3 3 3 3 4 4 6 7 6 6 5 5 4 5 4 4 5 5 6 7 7 7 11 13 16 24 29 33 36 28 30 32 40 62 44 45 56 98 94
3 3 3 3 3 4 4 4 5 5 5 4 4 4 4 4 4 4 4 4 5 6 6 6 8 10 11 12 13 15 19 20 24 29 32 28 28 45 62 78 37 37 48 66
3 3 4 4 4 4 5 5 5 4 4 4 4 4 4 4 4 5 5 6 6 6 7 8 9 10 11 12 15 15 17 19 20 23 26 26 25 32 44 68 40 50 68 96
3 3 4 4 4 4 4 4 4 4 4 4 5 5 6 6 6 6 6 6 7 8 8 11 15 20 20 20 19 17 17 17 20 23 24 23 24 33 47 52 47 54 91 82
4 4 4 4 4 4 4 5 5 6 6 6 6 7 8 8 8 8 9 11 13 17 21 20 18 18 18 17 21 24 26 26 25 21 24 30 36 42 48 78 45 76 78 89
6 5 5 6 7 7 8 8 9 8 8 8 9 9 9 11 12 12 13 17 19 22 26 29 24 23 22 26 26 24 25 27 26 26 28 30 33 38 41 45 49 52 60 74
8 9 9 9 9 10 10 10 11 11 12 12 14 13 13 14 16 17 19 22 24 29 32 29 25 26 28 30 38 38 32 31 32 31 35 39 36 40 53 56 52 65 76 82
10 10 11 12 12 12 12 14 14 16 17 19 19 18 19 19 19 21 23 24 28 29 30 26 23 26 31 29 37 37 35 39 41 44 44 42 42 42 40 47 59 70 76 73
13 12 12 12 14 14 15 15 17 17 19 17 17 17 21 22 21 23 24 22 22 29 29 31 42 44 44 26 23 23 25 30 32 31 30 33 42 49 57 67 75 72 68 61
Wind_Speed
77 79 78 77 78 78 79 79 72 74 83 84 86 89 86 91 91 91 89 88 84 85 84 84 83 82 84 82 80 79 76 74 71 69 68 67 66 65 67 64 57 48 48 41
70 68 67 67 69 70 74 74 71 73 76 70 71 81 95 99 96 98 97 94 90 87 86 85 87 91 88 87 84 85 83 80 76 75 77 74 71 66 63 61 64 55 46 39
62 61 58 60 61 63 67 68 65 65 67 66 72 74 81 90 99 100 99 98 98 96 95 91 90 91 94 98 95 92 88 84 81 79 79 79 75 72 69 68 64 55 47 46
57 54 54 55 57 59 59 56 55 59 63 67 72 72 77 80 84 95 99 101 101 102 105 105 103 105 102 99 99 100 101 96 88 84 82 84 82 78 76 70 60 61 50 51
53 52 51 52 55 57 51 48 50 53 60 67 68 70 71 73 77 81 87 96 103 103 101 102 103 102 103 104 104 101 103 98 96 92 92 90 86 78 75 75 70 67 54 52
50 50 50 50 52 52 47 47 46 49 56 61 59 62 67 71 75 79 82 88 88 89 99 98 100 99 100 98 98 98 100 97 97 95 95 98 94 87 85 82 74 67 63 59
46 45 46 48 49 46 45 46 49 49 51 54 56 59 62 65 70 75 79 81 80 88 88 88 88 87 88 90 90 91 91 93 94 86 91 96 84 92 90 87 82 77 67 64
42 41 42 44 46 46 44 46 44 45 49 54 56 56 58 61 63 66 68 73 80 83 81 78 79 80 81 80 81 81 81 80 83 84 79 80 77 81 89 92 80 76 75 71
42 42 44 46 47 47 46 45 46 45 49 48 54 57 57 60 62 65 65 71 74 71 72 72 70 71 73 74 73 72 74 76 78 78 78 73 55 76 90 90 76 82 80 78
44 45 45 46 46 47 45 42 44 46 46 49 52 53 55 56 58 59 63 69 67 68 64 65 63 63 64 65 64 65 68 68 67 71 75 59 62 77 76 79 73 86 84 82
41 42 43 44 45 46 43 44 45 44 44 49 53 55 54 54 55 58 59 66 62 58 56 54 55 55 58 59 57 59 64 67 65 66 68 56 68 71 73 68 69 78 78 80
42 44 46 48 49 49 48 47 48 48 45 47 50 52 54 56 58 62 62 58 60 55 51 46 52 52 53 52 51 56 57 61 68 65 56 62 68 66 61 66 66 71 77 76
48 50 51 51 53 53 50 49 52 50 46 47 46 48 55 54 60 65 62 60 60 58 52 53 55 54 54 49 48 57 57 60 61 58 54 60 64 63 63 62 59 68 69 72
43 44 44 46 49 50 50 47 53 51 46 46 51 51 47 55 59 59 56 59 63 61 57 57 58 54 58 53 54 56 59 55 53 52 59 62 62 60 61 59 62 60 59 59
35 36 37 39 40 41 42 43 47 46 45 45 47 46 51 53 55 59 57 61 61 61 61 59 56 52 48 51 56 56 55 49 49 54 60 58 61 63 61 59 58 61 56 53
26 28 30 32 32 33 33 34 33 36 35 37 42 47 48 52 52 54 54 55 57 56 49 43 39 43 46 52 57 56 52 50 49 54 60 61 64 63 63 64 66 64 56 54
19 22 24 26 28 32 35 40 40 37 37 40 42 41 38 41 42 45 48 48 45 42 41 39 44 49 52 54 56 53 49 52 51 51 58 64 67 67 66 66 63 59 55 44
17 18 21 23 25 26 28 30 32 32 31 30 29 29 33 35 35 36 38 42 45 45 46 45 44 46 49 53 48 47 47 52 54 53 56 60 66 68 68 65 61 58 49 48
18 20 22 23 25 27 28 29 30 29 26 25 30 34 36 38 39 39 42 40 40 41 42 43 49 53 52 43 45 47 47 50 51 53 54 55 60 61 66 63 61 56 54 57
18 19 20 23 24 27 28 29 30 33 36 36 35 34 35 37 38 38 34 33 34 36 38 38 42 36 39 41 46 51 54 54 53 52 52 52 54 60 64 68 62 57 50 49
22 25 28 28 29 29 30 29 28 29 29 28 26 26 28 29 31 32 33 32 32 33 33 34 38 37 37 42 45 47 48 49 49 49 51 51 51 59 67 69 58 47 49 51
20 23 25 25 26 25 26 26 26 25 25 26 25 25 25 26 26 24 25 26 27 28 26 22 22 30 35 37 41 44 44 43 43 45 47 47 48 53 58 57 53 48 52 54
24 25 26 27 27 26 26 25 26 26 26 26 27 26 26 26 25 24 22 23 23 24 24 28 31 32 37 39 39 38 39 40 40 39 39 41 44 48 52 56 50 51 52 56
26 27 28 29 28 27 27 27 26 25 24 25 25 26 26 25 26 26 27 27 28 29 28 31 33 33 33 34 36 36 34 33 34 35 34 36 41 49 54 54 53 54 55 54
27 28 28 28 27 28 27 27 27 26 24 24 24 22 22 23 23 24 24 26 27 28 30 32 32 31 31 31 30 28 28 29 31 30 31 34 39 46 48 52 53 54 55 57
25 26 28 28 28 27 27 26 26 25 23 23 23 22 20 19 18 19 22 25 26 27 28 28 24 24 26 31 32 30 29 29 32 35 39 42 45 49 53 54 54 57 59 63
28 29 29 29 30 29 28 27 27 26 23 21 20 20 19 18 17 18 20 23 24 25 25 24 21 20 26 28 34 33 36 38 40 41 42 44 47 50 54 57 60 63 66 68
Wind_Direction
263 262 262 262 261 257 253 250 246 244 245 245 244 239 238 236 237 237 238 241 242 243 243 237 238 243 244 243 244 245 247 248 247 251 255 254 257 262 269 273 273 270 265 259
262 262 261 258 255 251 248 247 243 239 241 240 241 239 239 237 239 241 240 241 241 242 242 241 239 239 244 248 248 249 249 250 250 253 256 258 260 260 258 260 268 274 257 251
263 261 259 257 254 249 246 245 244 241 241 236 236 235 237 239 241 242 243 243 242 244 244 243 244 244 243 242 244 247 249 251 253 254 257 260 260 259 260 262 265 266 259 247
262 260 258 254 251 248 247 246 241 239 238 236 235 233 234 235 237 240 243 246 246 244 244 246 245 246 247 246 246 247 247 249 251 252 253 257 259 259 261 260 262 265 257 253
260 258 254 250 248 247 246 243 239 235 235 235 235 234 234 234 235 236 237 240 242 244 245 246 247 248 249 250 250 250 251 251 251 252 253 252 253 255 257 257 257 258 253 250
258 255 252 250 247 244 240 239 235 234 233 236 236 234 233 231 232 235 236 239 240 241 243 243 244 245 247 248 250 251 253 254 252 250 251 251 253 255 253 253 251 254 254 244
253 251 249 248 248 246 239 236 234 230 230 230 229 230 231 232 234 234 235 237 240 241 241 244 246 247 248 250 250 252 252 253 256 253 253 252 252 251 253 252 246 249 244 240
246 246 246 246 246 243 238 234 230 226 226 227 227 230 230 230 231 234 236 238 236 240 242 242 244 247 249 249 250 249 249 249 249 251 247 248 247 250 251 251 249 248 249 243
245 245 244 243 244 244 239 232 226 219 222 222 230 230 229 232 230 233 235 236 237 237 240 242 243 244 246 246 247 249 247 246 245 246 247 243 241 242 243 247 247 251 251 252
247 245 244 242 242 242 241 233 229 220 216 223 227 231 234 235 237 237 238 242 241 241 241 244 244 244 246 247 247 245 245 242 242 243 245 239 230 235 238 240 240 243 245 245
243 241 240 240 241 241 240 235 231 227 223 219 224 228 230 234 237 239 240 242 246 241 241 240 242 241 240 243 243 243 241 242 238 236 239 235 231 232 232 240 239 239 240 240
239 238 238 238 239 239 237 237 235 232 223 227 223 222 224 226 231 236 240 242 244 246 242 242 241 241 239 237 238 239 237 237 238 236 233 233 234 234 234 234 236 236 238 237
241 240 240 239 240 240 238 237 239 239 233 230 230 233 232 229 233 235 236 241 246 248 242 240 237 234 239 237 234 235 237 236 236 235 230 232 234 233 230 233 235 237 238 239
245 244 242 241 241 242 242 239 239 241 237 233 235 234 226 231 235 238 237 241 244 244 242 239 240 236 234 235 234 232 236 237 235 230 228 229 230 232 230 230 234 242 239 239
241 239 237 236 236 237 237 236 234 236 233 230 229 229 230 229 230 234 233 233 236 238 239 240 239 240 237 234 234 232 235 235 231 226 226 224 225 229 231 233 234 237 240 241
234 229 228 228 227 226 227 229 229 229 228 226 223 222 222 222 223 227 231 232 233 238 241 237 233 234 227 227 228 229 230 228 229 227 227 221 225 228 230 230 233 238 241 243
221 213 210 209 207 207 208 207 210 212 212 213 214 216 216 218 218 220 223 227 232 233 231 230 223 219 217 220 223 224 223 222 227 225 226 223 225 227 231 235 239 241 246 241
199 197 196 195 197 198 197 200 200 203 205 205 203 207 206 206 206 208 211 215 215 216 218 217 217 220 220 221 221 217 214 218 224 225 227 226 226 226 228 233 237 240 238 236
179 179 180 181 183 184 187 188 189 187 182 183 190 190 190 193 195 197 204 205 207 208 211 210 210 215 215 214 216 214 209 218 221 226 228 227 230 228 231 236 235 235 237 236
158 157 161 164 164 165 169 169 168 169 174 180 185 186 187 190 192 196 198 198 201 202 209 209 214 213 212 210 213 212 212 219 223 226 229 231 228 225 230 235 237 240 240 244
152 150 149 153 156 158 159 164 169 171 175 175 173 178 181 181 186 187 189 192 197 202 203 204 209 212 214 211 216 221 223 224 225 228 230 232 230 230 229 230 236 235 235 232
135 140 140 145 150 152 155 159 161 163 164 165 166 167 172 175 180 184 187 190 194 197 201 205 195 194 201 210 217 221 225 227 229 230 231 231 231 225 225 231 232 229 229 229
132 131 134 138 142 145 147 145 148 152 155 157 158 161 166 168 171 171 174 172 164 168 171 185 195 202 208 214 215 222 228 231 237 235 233 233 235 232 229 232 230 230 231 232
128 131 133 133 133 133 134 135 137 140 144 148 152 159 162 161 164 168 167 161 164 172 177 191 199 207 214 217 222 224 227 233 233 233 229 229 231 231 230 232 229 230 232 236
130 131 134 134 134 135 137 139 141 142 144 145 150 157 162 161 162 164 163 165 175 182 191 202 208 212 216 214 218 224 228 228 227 226 229 232 232 228 228 230 232 236 240 244
126 130 131 133 134 134 134 134 135 136 141 147 152 156 162 169 169 173 176 176 184 190 200 211 213 214 213 213 212 217 220 219 222 225 226 227 228 231 233 237 240 242 245 248
129 133 132 133 134 135 134 135 134 138 138 139 152 157 160 166 169 175 181 187 192 197 206 211 212 223 227 237 223 225 225 226 230 233 234 234 236 238 239 241 243 247 250 254